User: anonymous   Login
Location: Unspecified
(0.0000°N, 0.0000°E)
Time: 21:54:55
(UTC+00:00)
Language:

QPS-SAR-9 - Orbit

View from above orbital plane
View from above orbital plane
View from above satellite
View from above satellite

Ground track
Ground track

The orbit is defined by the following mean orbital elements,

1 63205U          26145.59128337 +.00000000 +00000-0 +31736-3 0 00008
2 63205  42.0186 227.0792 0004115 345.8215  14.2495 15.02904672    08
Epoch (UTC): 25 May 2026 14:11:26
Eccentricity: 0.0004115
inclination: 42.0186°
perigee height: 555 km
apogee height: 561 km
right ascension of ascending node: 227.0792°
argument of perigee: 345.8215°
revolutions per day: 15.02904672
mean anomaly at epoch: 14.2495°

The dashed part of the orbit path shows where the satellite is in the earth's shadow,  

DLR